This demonstration page uses our WeatherBlox Daily Observations layout. Learn more.

Left ArrowRight Arrow

Hourly Observations for December 11, 2021

Temp ( °F °C ) Dew Point ( °F °C ) Humidity (%) Winds ( mph kmh ) Pressure ( in mb ) Visibility ( mi km ) Precip ( " mm )
12:06 am 00:06 Cloudy with Mist and Fog 54 12.2 51 10.6 90 90 Calm 30.09 1019 5 8 0.00 0.00
12:59 am 00:59 Cloudy with Mist and Fog 54 12.2 51 10.6 90 90 S 3 6 30.06 1018 3 4 0.00 0.00
1:01 am 01:01 Cloudy with Mist and Fog 54 12.2 51 10.6 90 90 S 3 6 30.06 1018 3 5 0.00 0.00
1:57 am 01:57 Mostly Cloudy with Mist and Fog 55 13 54 12 94 94 SSW 9 15 30.06 1018 1 1 0.00 0.00
1:59 am 01:59 Mostly Cloudy with Mist and Fog 55 12.8 53 11.7 93 93 SSW 9 15 30.06 1018 1 1 0.00 0.00
2:04 am 02:04 Cloudy with Mist and Fog 56 13.3 53 11.7 90 90 SSW 9 15 30.06 1018 1 2 0.00 0.00
2:11 am 02:11 Cloudy with Mist and Fog 56 13.3 53 11.7 90 90 SSW 10 17 30.05 1018 2 3 0.00 0.00
2:22 am 02:22 Cloudy with Mist and Fog 56 13.3 54 12.2 93 93 SSW 12 19 30.05 1018 4 6 0.00 0.00
2:33 am 02:33 Cloudy with Mist and Fog 56 13.3 54 12.2 93 93 SSW 10 17 30.05 1018 5 8 0.00 0.00
2:59 am 02:59 Cloudy 56 13.3 54 12.2 93 93 SSW 10 17 30.04 1017 7 11 0.00 0.00
3:59 am 03:59 Cloudy 56 13.3 52 11.1 87 87 SSW 9 15 30.03 1017 8 13 0.00 0.00
4:26 am 04:26 Cloudy 57 13.9 52 11.1 83 83 SW 7 11 30.03 1017 7 11 0.00 0.00
4:39 am 04:39 Cloudy 57 13.9 52 11.1 83 83 SSW 10 17 30.03 1017 7 11 0.00 0.00
4:59 am 04:59 Cloudy with Mist and Fog 57 13.9 53 11.7 87 87 SW 8 13 30.03 1017 6 10 0.00 0.00
5:59 am 05:59 Cloudy with Mist and Fog 58 14.4 54 12.2 87 87 S 14 22 30.01 1016 6 10 0.00 0.00
6:59 am 06:59 Mostly Cloudy 59 15 55 12.8 87 87 S 10 17 30.01 1016 7 11 0.00 0.00
7:26 am 07:26 Cloudy with Mist and Fog 60 15.6 56 13.3 86 86 SSW 12 19 30.01 1016 5 8 0.00 0.00
7:59 am 07:59 Cloudy with Mist and Fog 61 16.1 57 13.9 87 87 SSW 9 15 30.02 1017 5 8 0.00 0.00
8:59 am 08:59 Cloudy with Mist and Fog 63 17.2 59 15 87 87 SSW 9 15 30.01 1016 6 10 0.00 0.00
9:25 am 09:25 Mostly Cloudy 65 18.3 59 15 81 81 SSW 9 15 30.01 1016 7 11 0.00 0.00
9:59 am 09:59 Cloudy 66 18.9 58 14.4 75 75 SW 13 20 30.01 1016 8 13 0.00 0.00
10:11 am 10:11 Cloudy with Light Rain 65 18.3 58 14.4 78 78 SW 13 20 30.01 1016 4 6 0.00 0.00
10:59 am 10:59 Mostly Cloudy 66 18.9 62 16.7 87 87 SSW 13 20 29.98 1015 7 11 0.02 0.51
11:51 am 11:51 Cloudy 69 20.6 62 16.7 78 78 SSW 12 19 29.95 1014 7 11 0.00 0.00
11:59 am 11:59 Cloudy 69 20.6 62 16.7 78 78 SSW 12 19 29.94 1014 7 11 0.00 0.00
12:59 pm 12:59 Cloudy 73 22.8 63 17.2 71 71 SSW 16 26 29.90 1012 8 13 0.00 0.00
1:08 pm 13:08 Mostly Cloudy 73 22.8 63 17.2 71 71 SSW 14 22 29.89 1012 8 13 0.00 0.00
1:59 pm 13:59 Mostly Cloudy 75 23.9 63 17.2 66 66 SSW 14 22 29.86 1011 9 14 0.00 0.00
2:59 pm 14:59 Cloudy 75 23.9 63 17.2 66 66 SSW 12 19 29.85 1011 9 14 0.00 0.00
3:59 pm 15:59 Cloudy 74 23.3 63 17.2 69 69 SSW 17 28 29.84 1011 9 14 0.00 0.00
4:59 pm 16:59 Cloudy 73 22.8 63 17.2 71 71 S 14 22 29.83 1010 9 14 0.00 0.00
5:59 pm 17:59 Mostly Cloudy 73 22.8 63 17.2 71 71 S 12 19 29.81 1010 9 14 0.00 0.00
6:59 pm 18:59 Mostly Cloudy 71 21.7 63 17.2 76 76 SSW 10 17 29.83 1010 9 14 0.00 0.00
7:59 pm 19:59 Mostly Cloudy 71 21.7 64 17.8 79 79 SSW 12 19 29.83 1010 9 14 0.00 0.00
8:59 pm 20:59 Mostly Cloudy 70 21.1 64 17.8 82 82 SSW 10 17 29.83 1010 8 13 0.02 0.51
9:17 pm 21:17 Mostly Cloudy 70 21.1 64 17.8 82 82 SW 8 13 29.83 1010 8 13 0.00 0.00
9:41 pm 21:41 Cloudy with Rain 64 17.8 56 13.3 75 75 WSW 15 24 29.88 1012 2 3 0.11 2.79
9:59 pm 21:59 Cloudy with Light Rain 63 17.2 58 14.4 84 84 SW 10 17 29.87 1012 4 6 0.20 5.08
10:59 pm 22:59 Cloudy with Light Rain 62 16.7 58 14.4 86 86 SSW 10 17 29.86 1011 5 8 0.10 2.54
11:59 pm 23:59 Cloudy with Light Rain 62 16.7 58 14.4 86 86 SSW 9 15 29.87 1012 10 16 0.02 0.51

Powered by AerisWeather